sat.trackr.live / text

‹ back to catalog

STARLINK-35556

NORAD 66238 · 2025-245E

PAYLOAD ACTIVE UNKNOWN

§ Identity

Operator
Country
US
Launch date
2025-10-29
Launch site
AFETR
Launch vehicle
Mass (kg)
RCS (m²)

Purposes: comms

External: N2YO · Heavens-Above · Gunter

§ Orbital elements

Epoch: 2026-05-24T19:53:04.717248Z

Period
93.85 min
Inclination
53.1577°
Eccentricity
0.0001079
Mean motion
15.34397956 rev/d
Perigee alt
462.0 km
Apogee alt
463.4 km
Semi-major
6,840.8 km
B*
1.0370e-3
RAAN
288.8285°
Arg perigee
86.3762°
Mean anomaly
273.7364°
Rev number
3,293

§ Raw data

STARLINK-355561 66238U 25245E   26144.82852682  .00034820  00000+0  10370-2 0  99902 66238  53.1577 288.8285 0001079  86.3762 273.7364 15.34397956 32936

JSON: /api/v1/satellites/66238 · /tle

For live sub-satellite position, see the globe view (requires WebGL).

§ Visibility from observer

Set your observer location to see the next 7 days of passes ≥ 10°. The values pass through the URL so the page stays shareable.

No JS? Fill the form by hand. The geolocation button needs JavaScript.